• In India
  • List of Countries
  • For 7 days
  • Water Temperature
  • Satellite Maps
  • Weather Map
  • Weather Widgets
  • user-avatar
    Login

    Hourly Weather Popove

    Today, 20 February, Wednesday

    Time Temperature Precipitation Wind Pressure Humidity
    00:00 -3°C° 0 mm 4 mps 756 mmHg 64%
    01:00 -3°C° 0 mm 4 mps 756 mmHg 64%
    02:00 -3°C° 0 mm 4 mps 755 mmHg 65%
    03:00 -3°C° 0 mm 4 mps 755 mmHg 66%
    04:00 -3°C° 0 mm 4 mps 754 mmHg 68%
    05:00 -4°C° 0 mm 4 mps 754 mmHg 69%
    06:00 -4°C° 0 mm 5 mps 754 mmHg 68%
    07:00 -4°C° 0 mm 5 mps 753 mmHg 68%
    08:00 -4°C° 0 mm 5 mps 753 mmHg 67%
    09:00 -1°C° 0 mm 5 mps 753 mmHg 66%
    10:00 +1°C° 0 mm 6 mps 752 mmHg 65%
    11:00 +2°C° 0 mm 6 mps 752 mmHg 64%
    12:00 +3°C° 0 mm 6 mps 751 mmHg 66%
    13:00 +4°C° 0 mm 6 mps 751 mmHg 67%
    14:00 +4°C° 0 mm 6 mps 751 mmHg 68%
    15:00 +4°C° 0 mm 6 mps 750 mmHg 73%
    16:00 +3°C° 0 mm 5 mps 750 mmHg 78%
    17:00 +4°C° 0 mm 4 mps 750 mmHg 83%
    18:00 +4°C° 0 mm 4 mps 750 mmHg 85%
    19:00 +3°C° 0 mm 5 mps 750 mmHg 87%
    20:00 +3°C° 0 mm 5 mps 750 mmHg 89%
    21:00 +3°C° 0.2 mm 4 mps 750 mmHg 91%
    22:00 +3°C° 0.2 mm 4 mps 749 mmHg 92%
    23:00 +3°C° 0.2 mm 4 mps 749 mmHg 94%

    Tomorrow, 21 February, Thursday

    Time Temperature Precipitation Wind Pressure Humidity
    00:00 +1°C° 0.1 mm 4 mps 749 mmHg 93%
    01:00 +2°C° 0.1 mm 3 mps 749 mmHg 92%
    02:00 +1°C° 0.1 mm 3 mps 749 mmHg 91%
    03:00 +2°C° 0 mm 3 mps 749 mmHg 87%
    04:00 +1°C° 0 mm 4 mps 749 mmHg 83%
    05:00 +1°C° 0 mm 4 mps 749 mmHg 80%
    06:00 +1°C° 0 mm 5 mps 749 mmHg 79%
    07:00 0°C° 0 mm 5 mps 749 mmHg 78%
    08:00 -1°C° 0 mm 6 mps 749 mmHg 77%
    09:00 0°C° 0.1 mm 7 mps 749 mmHg 72%
    10:00 +1°C° 0.1 mm 8 mps 749 mmHg 66%
    11:00 +1°C° 0.1 mm 9 mps 749 mmHg 61%
    12:00 +1°C° 0.1 mm 9 mps 749 mmHg 60%
    13:00 0°C° 0.1 mm 9 mps 749 mmHg 60%
    14:00 -1°C° 0.1 mm 9 mps 749 mmHg 59%
    15:00 -2°C° 0 mm 8 mps 750 mmHg 59%
    16:00 -4°C° 0 mm 8 mps 750 mmHg 59%
    17:00 -5°C° 0 mm 8 mps 750 mmHg 60%
    18:00 -4°C° 0 mm 7 mps 751 mmHg 61%
    19:00 -4°C° 0 mm 7 mps 752 mmHg 62%
    20:00 -5°C° 0 mm 6 mps 752 mmHg 63%
    21:00 -5°C° 0 mm 5 mps 752 mmHg 63%
    22:00 -5°C° 0 mm 5 mps 753 mmHg 62%
    23:00 -5°C° 0 mm 4 mps 753 mmHg 62%

    Day after tomorrow, 22 February, Friday

    Time Temperature Precipitation Wind Pressure Humidity
    00:00 -5°C° 0 mm 4 mps 753 mmHg 62%
    01:00 -5°C° 0 mm 4 mps 753 mmHg 61%
    02:00 -5°C° 0 mm 3 mps 753 mmHg 61%
    03:00 -5°C° 0 mm 3 mps 753 mmHg 62%
    04:00 -5°C° 0 mm 3 mps 752 mmHg 63%
    05:00 -5°C° 0 mm 3 mps 752 mmHg 64%
    06:00 -5°C° 0 mm 3 mps 752 mmHg 63%
    07:00 -4°C° 0 mm 3 mps 752 mmHg 62%
    08:00 -4°C° 0 mm 3 mps 752 mmHg 61%
    09:00 -4°C° 0 mm 3 mps 752 mmHg 60%
    10:00 -4°C° 0 mm 3 mps 751 mmHg 58%
    11:00 -3°C° 0 mm 2 mps 751 mmHg 57%
    12:00 -4°C° 0.2 mm 3 mps 751 mmHg 62%
    13:00 -4°C° 0.2 mm 3 mps 751 mmHg 68%
    14:00 -5°C° 0.2 mm 4 mps 751 mmHg 74%
    15:00 -6°C° 0.4 mm 5 mps 751 mmHg 76%
    16:00 -7°C° 0.4 mm 5 mps 751 mmHg 79%
    17:00 -9°C° 0.4 mm 6 mps 751 mmHg 81%
    18:00 -11°C° 0.3 mm 7 mps 752 mmHg 79%
    19:00 -11°C° 0.3 mm 8 mps 752 mmHg 76%
    20:00 -12°C° 0.3 mm 8 mps 753 mmHg 74%
    21:00 -12°C° 0.1 mm 8 mps 753 mmHg 70%
    22:00 -13°C° 0.1 mm 8 mps 753 mmHg 67%
    23:00 -13°C° 0.1 mm 8 mps 753 mmHg 64%

    23 February, Saturday

    Time Temperature Precipitation Wind Pressure Humidity
    00:00 -13°C° 0 mm 8 mps 753 mmHg 64%
    01:00 -15°C° 0 mm 8 mps 754 mmHg 65%
    02:00 -15°C° 0 mm 8 mps 754 mmHg 66%
    03:00 -15°C° 0 mm 8 mps 754 mmHg 67%
    04:00 -15°C° 0 mm 8 mps 754 mmHg 68%
    05:00 -15°C° 0 mm 8 mps 755 mmHg 69%
    06:00 -16°C° 0 mm 8 mps 755 mmHg 70%
    07:00 -16°C° 0 mm 8 mps 755 mmHg 70%
    08:00 -16°C° 0 mm 8 mps 756 mmHg 70%
    09:00 -15°C° 0 mm 8 mps 756 mmHg 67%
    10:00 -13°C° 0 mm 8 mps 757 mmHg 63%
    11:00 -12°C° 0 mm 8 mps 757 mmHg 60%
    12:00 -12°C° 0 mm 8 mps 757 mmHg 60%
    13:00 -12°C° 0 mm 7 mps 757 mmHg 60%
    14:00 -11°C° 0 mm 7 mps 757 mmHg 60%
    15:00 -12°C° 0 mm 7 mps 758 mmHg 63%
    16:00 -12°C° 0 mm 7 mps 758 mmHg 67%
    17:00 -13°C° 0 mm 7 mps 758 mmHg 70%
    18:00 -13°C° 0 mm 7 mps 759 mmHg 71%
    19:00 -12°C° 0 mm 6 mps 759 mmHg 73%
    20:00 -12°C° 0 mm 6 mps 759 mmHg 75%
    21:00 -12°C° 0 mm 6 mps 759 mmHg 75%
    22:00 -12°C° 0 mm 6 mps 760 mmHg 76%
    23:00 -14°C° 0 mm 6 mps 760 mmHg 77%

    24 February, Sunday

    Time Temperature Precipitation Wind Pressure Humidity
    00:00 -13°C° 0 mm 5 mps 760 mmHg 77%
    01:00 -13°C° 0 mm 5 mps 760 mmHg 78%
    02:00 -13°C° 0 mm 5 mps 760 mmHg 78%
    03:00 -13°C° 0 mm 5 mps 760 mmHg 79%
    04:00 -14°C° 0 mm 5 mps 759 mmHg 80%
    05:00 -14°C° 0 mm 5 mps 759 mmHg 81%
    06:00 -14°C° 0 mm 5 mps 760 mmHg 80%
    07:00 -14°C° 0 mm 5 mps 760 mmHg 79%
    08:00 -14°C° 0 mm 5 mps 760 mmHg 78%
    09:00 -13°C° 0 mm 5 mps 760 mmHg 75%
    10:00 -12°C° 0 mm 5 mps 760 mmHg 71%
    11:00 -11°C° 0 mm 5 mps 760 mmHg 67%
    12:00 -10°C° 0 mm 5 mps 760 mmHg 65%
    13:00 -10°C° 0 mm 5 mps 760 mmHg 64%
    14:00 -8°C° 0 mm 5 mps 760 mmHg 62%
    15:00 -8°C° 0 mm 5 mps 760 mmHg 65%
    16:00 -9°C° 0 mm 4 mps 760 mmHg 69%
    17:00 -9°C° 0 mm 4 mps 760 mmHg 72%
    18:00 -9°C° 0 mm 4 mps 761 mmHg 74%
    19:00 -10°C° 0 mm 4 mps 761 mmHg 77%
    20:00 -10°C° 0 mm 4 mps 761 mmHg 80%
    21:00 -10°C° 0 mm 4 mps 761 mmHg 81%
    22:00 -10°C° 0 mm 4 mps 761 mmHg 81%
    23:00 -10°C° 0 mm 4 mps 761 mmHg 82%

    25 February, Monday

    Time Temperature Precipitation Wind Pressure Humidity
    00:00 -11°C° 0 mm 4 mps 761 mmHg 82%
    01:00 -11°C° 0 mm 4 mps 761 mmHg 82%
    02:00 -11°C° 0 mm 4 mps 761 mmHg 82%
    03:00 -11°C° 0 mm 4 mps 761 mmHg 82%
    04:00 -12°C° 0 mm 4 mps 760 mmHg 82%
    05:00 -12°C° 0 mm 4 mps 760 mmHg 82%
    06:00 -12°C° 0 mm 4 mps 760 mmHg 82%
    07:00 -11°C° 0 mm 4 mps 760 mmHg 81%
    08:00 -11°C° 0 mm 4 mps 760 mmHg 80%
    09:00 -10°C° 0 mm 4 mps 759 mmHg 76%
    10:00 -9°C° 0 mm 4 mps 759 mmHg 73%
    11:00 -8°C° 0 mm 4 mps 759 mmHg 69%
    12:00 -7°C° 0 mm 4 mps 758 mmHg 67%
    13:00 -5°C° 0 mm 4 mps 758 mmHg 65%
    14:00 -4°C° 0 mm 4 mps 757 mmHg 62%
    15:00 -5°C° 0 mm 4 mps 756 mmHg 65%
    16:00 -5°C° 0 mm 4 mps 756 mmHg 68%
    17:00 -7°C° 0 mm 4 mps 755 mmHg 71%
    18:00 -7°C° 0 mm 4 mps 755 mmHg 74%
    19:00 -8°C° 0 mm 4 mps 755 mmHg 77%
    20:00 -8°C° 0 mm 4 mps 754 mmHg 80%
    21:00 -8°C° 0 mm 4 mps 753 mmHg 80%
    22:00 -8°C° 0 mm 4 mps 753 mmHg 79%
    23:00 -8°C° 0 mm 4 mps 752 mmHg 78%
    Show more